Regional Weather Roundup
Issued by NWS Glasgow, MT

Home | Current Version | Previous Version | Text Only | Print | Product List | Glossary On
Versions: 1 2 3 4 5 6 7 8 9 10 11 12 13 14 15 16 17 18 19 20 21 22 23 24 25 26 27 28 29 30 31 32 33 34 35 36 37 38 39 40 41 42 43 44 45 46 47 48 49 50
000
ASUS45 KGGW 300115
RWRGGW
HOURLY REGIONAL WEATHER ROUNDUP FOR NORTHEAST MONTANA
NATIONAL WEATHER SERVICE GLASGOW MONTANA
700 PM MDT FRI JUL 29 2016

NOTE: "FAIR" INDICATES FEW OR NO CLOUDS BELOW 12,000 FEET WITH NO
SIGNIFICANT WEATHER AND/OR OBSTRUCTIONS TO VISISBILITY.

NORTHEAST MONTANA


CITY           SKY/WX    TMP DP  RH WIND       PRES   REMARKS
GLASGOW        MOSUNNY   78  57  48 E9        29.94F
PLENTYWOOD       N/A     74  57  55 SE3G13      N/A
WOLF POINT     SUNNY     82  50  32 CALM      29.96F
JORDAN           N/A     83  54  36 E5        29.96F
SIDNEY         SUNNY     80  44  27 NE5       29.96F
GLENDIVE       SUNNY     79  50  36 E6        29.97F
MALTA            N/A     86  61  42 E3G14       N/A
SCOBEY           N/A     77  50  38 SE5       29.98S

FORT PECK REPORTS


CITY           SKY/WX    TMP DP  RH WIND       PRES   REMARKS
FORT PECK        N/A     84  56  38 E3          N/A
THE PINES        N/A     80  55  42 NE7         N/A

SOUTHEAST MONTANA


CITY           SKY/WX    TMP DP  RH WIND       PRES   REMARKS
BILLINGS       MOSUNNY   85  48  27 E12       29.98S
MILES CITY     SUNNY     81  53  37 NE9       29.96F
BAKER          SUNNY     80  54  40 NW6       29.99F
LIVINGSTON     SUNNY     85  47  26 E17G24    30.01

CENTRAL MONTANA


CITY           SKY/WX    TMP DP  RH WIND       PRES   REMARKS
HAVRE          SUNNY     85  50  29 E7        29.94F
LEWISTOWN      SUNNY     81  52  36 NE6       30.04F
GREAT FALLS    SUNNY     85  45  24 E9G20     29.97F
CUT BANK         N/A     82  50  32 E8        29.98F
HELENA         SUNNY     89  42  19 SE3       29.93F
BUTTE          CLOUDY    85  40  20 NW7       30.06F
BOZEMAN        SUNNY     88  43  20 CALM      29.99F

WESTERN MONTANA


CITY           SKY/WX    TMP DP  RH WIND       PRES   REMARKS
MISSOULA       SUNNY     93  43  17 W5        29.90F
KALISPELL      NOT AVBL

NORTH DAKOTA


CITY           SKY/WX    TMP DP  RH WIND       PRES   REMARKS
WILLISTON      MOSUNNY   80  48  32 CALM      29.97S
DICKINSON      SUNNY     76  56  49 NE7       29.96F
MINOT          MOSUNNY   81  57  43 SW8       29.96F
BISMARCK       MOSUNNY   77  62  59 S12       29.97F

SOUTHERN SASKATCHEWAN


CITY           SKY/WX    TMP DP  RH WIND       PRES   REMARKS
REGINA         PTSUNNY   73  63  68 S10       29.93F
ESTEVAN        PTSUNNY   72  59  64 SW3       29.96F
SWIFT CURRENT  SUNNY     75  57  53 N9        29.95F




USA.gov is the U.S. government's official web portal to all federal, state and local government web resources and services.